COSMOS 2475 (743)

Last updated on Wed Sep 17 2025 00:03:19 GMT+0000 (Coordinated Universal Time)

1 37869U 11064C 25259.45476547 .00000044 00000+0 00000+0 0 9996 2 37869 65.1270 82.2192 0023803 247.3936 295.4886 2.13101709107936
UTC large
Height (km)
Speed (km/s)
/
Latitude / Longitude
Inclination (degrees)
Orbital Period (minutes)
Azimuth
Elevation
Range (km)
Doppler Factor

Next 0 passes for location: London (51.5072 / 0.1276)

Sorry there are no passes over London.